Capitol Logistics 3263


KMCO
Orlando International Airport
Orlando, Florida, US
KMIA
Miami International Airport
Miami, Florida, US

Activity Log

Date Flight Route Aircraft Duration
11/04/2019 CPX663 MLB ANNEY4 SF34 1h 02m
10/06/2019 CPX663 MLB ANNEY4 SF34 1h 04m
08/25/2019 CPX663 MLB ANNEY4 SF34 1h 03m

Route Details

Aircraft Information
Primary: Saab 340AF
Backup: Not Available
Route Data
Distance: 167nm
Sched. Duration: 1h 25m
Avg. Duration: 1h 03m (-22m)
Times Flown: 3
Recm'd Route: MLB ANNEY4
Planned Altitude: 15,000ft
Origin Wx: KMCO 260553Z 05003KT 10SM FEW015 22/21 A2995 RMK AO2 SLP140 T02220211 10261 20222 58002
Dest. Wx: KMIA 260553Z 01003KT 10SM FEW020 SCT070 OVC090 25/23 A2993 RMK AO2 RAB14E29 SLP135 P0000 60016 T02500233 10267 20244 58011 $
Notes:

Financial History
Total Freight: 20,145lbs
Average Load: 6,715lbs/flt
Fuel Used: 2,366lbs
Avg. Fuel Used: 789lbs/flt
Fuel Expense: $2,437
Avg. Fuel Expense: $812
Avg. Fuel Cost: $1.03/lbs
Total Gross Income: $22,562
Pilot Pay: $447
Total Expenses: $2,593
Total Revenue: $16,903
Average Revenue: $7,520.80